Change the Weather History Date:

Wednesday, March 26, 2014

  Actual Average Record
Temperature  
Mean Temperature 30 °F -  
Max Temperature 42 °F 50 °F 78 °F (2007)
Min Temperature 17 °F 31 °F 11 °F (1965)
Degree Days  
Heating Degree Days 36    
Moisture  
Dew Point 17 °F    
Average Humidity 61    
Maximum Humidity 85    
Minimum Humidity 44    
Precipitation  
Precipitation 0.00 in - - ()
Sea Level Pressure  
Sea Level Pressure 30.19 in    
Wind  
Wind Speed 7 mph (South)    
Max Wind Speed 22 mph    
Max Gust Speed 26 mph    
Visibility 10 miles    
Events      
Averages and records for this station are not official NWS values.
T = Trace of Precipitation, MM = Missing Value Source: NWS Daily Summary

Daily Weather History Graph

Daily Weather History Graph

Search for Another Location

Airport or City:

Trip Planner

Search our weather history database for the weather conditions in past years. The results will help you decide how hot, cold, wet, or windy it might be!

Date:

Astronomy

Mar. 26, 2014 Rise Set
Actual Time 6:49 AM CDT 7:15 PM CDT
Civil Twilight 6:22 AM CDT 7:43 PM CDT
Nautical Twilight 5:49 AM CDT 8:15 PM CDT
Astronomical Twilight 5:16 AM CDT 8:49 PM CDT
Moon 4:01 AM CDT (3/26) 2:51 PM CDT (3/26)
Length of Visible Light 13h 20m
Length of Day
12h 25m
Waning Crescent, 21% of the Moon is Illuminated
Mar 26
Waning Crescent
Mar 30
New
Apr 7
First Quarter
Apr 15
Full
Apr 22
Last Quarter

Hourly Weather History & Observations

Time (CDT) Temp. Windchill Dew Point Humidity Pressure Visibility Wind Dir Wind Speed Gust Speed Precip Events Conditions
12:10 AM 21.6 °F 12.1 °F 13.6 °F 72% 30.27 in 10.0 mi NW 8.1 mph - N/A   Clear
12:30 AM 21.2 °F 14.9 °F 13.6 °F 73% 30.27 in 10.0 mi NW 4.6 mph - N/A   Clear
12:50 AM 20.7 °F 15.8 °F 13.8 °F 75% 30.27 in 10.0 mi NW 3.5 mph - N/A   Clear
1:10 AM 20.1 °F - 13.6 °F 76% 30.27 in 10.0 mi Calm Calm - N/A   Clear
1:30 AM 19.9 °F - 13.8 °F 77% 30.27 in 10.0 mi Calm Calm - N/A   Clear
1:50 AM 20.3 °F - 13.8 °F 76% 30.27 in 10.0 mi Calm Calm - N/A   Clear
2:10 AM 20.7 °F 14.2 °F 12.6 °F 71% 30.27 in 10.0 mi NNW 4.6 mph - N/A   Clear
2:30 AM 20.3 °F - 12.6 °F 72% 30.27 in 10.0 mi Calm Calm - N/A   Clear
2:50 AM 19.6 °F - 12.9 °F 75% 30.28 in 10.0 mi Calm Calm - N/A   Clear
3:10 AM 18.7 °F - 13.8 °F 81% 30.28 in 10.0 mi Calm Calm - N/A   Clear
3:30 AM 18.5 °F - 13.5 °F 81% 30.28 in 10.0 mi Calm Calm - N/A   Clear
3:50 AM 18.5 °F - 13.5 °F 81% 30.28 in 10.0 mi Calm Calm - N/A   Clear
4:10 AM 17.6 °F - 13.1 °F 83% 30.27 in 10.0 mi Calm Calm - N/A   Clear
4:30 AM 18.3 °F - 13.1 °F 80% 30.27 in 10.0 mi Calm Calm - N/A   Clear
4:50 AM 18.5 °F - 13.1 °F 79% 30.27 in 10.0 mi Calm Calm - N/A   Clear
5:10 AM 18.3 °F - 12.4 °F 78% 30.28 in 10.0 mi Calm Calm - N/A   Clear
5:30 AM 18.0 °F - 13.3 °F 82% 30.28 in 10.0 mi Calm Calm - N/A   Clear
5:50 AM 18.5 °F - 13.8 °F 82% 30.30 in 10.0 mi Calm Calm - N/A   Clear
6:10 AM 17.6 °F - 13.1 °F 83% 30.30 in 10.0 mi Calm Calm - N/A   Clear
6:30 AM 18.1 °F - 14.0 °F 84% 30.30 in 10.0 mi Calm Calm - N/A   Clear
6:50 AM 18.5 °F - 13.6 °F 81% 30.30 in 10.0 mi Calm Calm - N/A   Clear
7:10 AM 19.4 °F - 14.2 °F 80% 30.30 in 10.0 mi Calm Calm - N/A   Clear
7:30 AM 19.4 °F - 15.4 °F 85% 30.31 in 10.0 mi Calm Calm - N/A   Clear
7:50 AM 21.2 °F - 15.6 °F 79% 30.31 in 10.0 mi Calm Calm - N/A   Clear
8:10 AM 22.5 °F - 13.3 °F 68% 30.32 in 10.0 mi Calm Calm - N/A   Clear
8:30 AM 23.2 °F 17.2 °F 10.4 °F 58% 30.32 in 10.0 mi South 4.6 mph - N/A   Clear
8:50 AM 23.9 °F 15.8 °F 10.4 °F 56% 30.31 in 10.0 mi SSE 6.9 mph - N/A   Clear
9:10 AM 24.8 °F 16.1 °F 11.1 °F 56% 30.30 in 10.0 mi South 8.1 mph - N/A   Clear
9:30 AM 26.1 °F 17.6 °F 11.5 °F 54% 30.31 in 10.0 mi South 8.1 mph - N/A   Clear
9:50 AM 27.0 °F 18.0 °F 11.8 °F 53% 30.32 in 10.0 mi SSW 9.2 mph - N/A   Clear
10:10 AM 27.5 °F 18.0 °F 12.7 °F 54% 30.32 in 10.0 mi South 10.4 mph - N/A   Clear
10:30 AM 28.0 °F 18.6 °F 13.1 °F 54% 30.31 in 10.0 mi South 10.4 mph - N/A   Clear
10:50 AM 28.9 °F 20.4 °F 14.0 °F 54% 30.30 in 10.0 mi South 9.2 mph - N/A   Clear
11:10 AM 30.0 °F 21.1 °F 14.9 °F 53% 30.29 in 10.0 mi South 10.4 mph - N/A   Clear
11:30 AM 30.6 °F 20.7 °F 14.7 °F 52% 30.27 in 10.0 mi South 12.7 mph - N/A   Clear
11:50 AM 31.5 °F 21.8 °F 15.4 °F 52% 30.26 in 10.0 mi SSE 12.7 mph 18.4 mph N/A   Clear
12:10 PM 32.2 °F 23.2 °F 16.2 °F 52% 30.26 in 10.0 mi South 11.5 mph 18.4 mph N/A   Clear
12:30 PM 32.9 °F 23.7 °F 17.4 °F 53% 30.25 in 10.0 mi South 12.7 mph 18.4 mph N/A   Clear
12:50 PM 34.3 °F 25.5 °F 17.6 °F 50% 30.23 in 10.0 mi SSE 12.7 mph - N/A   Clear
1:10 PM 34.7 °F 24.7 °F 18.1 °F 51% 30.23 in 10.0 mi South 16.1 mph - N/A   Clear
1:30 PM 35.8 °F 26.5 °F 18.0 °F 48% 30.21 in 10.0 mi SSE 15.0 mph 19.6 mph N/A   Clear
1:50 PM 36.9 °F 29.1 °F 18.5 °F 47% 30.20 in 10.0 mi South 11.5 mph 20.7 mph N/A   Clear
2:10 PM 37.4 °F 28.5 °F 19.0 °F 48% 30.19 in 10.0 mi South 15.0 mph 24.2 mph N/A   Clear
2:30 PM 37.6 °F 29.6 °F 19.2 °F 48% 30.18 in 10.0 mi South 12.7 mph 24.2 mph N/A   Mostly Cloudy
2:50 PM 37.2 °F 27.9 °F 18.7 °F 47% 30.16 in 10.0 mi South 16.1 mph 20.7 mph N/A   Overcast
3:10 PM 39.4 °F 30.1 °F 20.7 °F 47% 30.15 in 10.0 mi South 18.4 mph - N/A   Overcast
3:30 PM 38.3 °F 28.4 °F 19.8 °F 47% 30.14 in 10.0 mi South 19.6 mph 24.2 mph N/A   Overcast
3:50 PM 39.6 °F 30.0 °F 20.3 °F 46% 30.13 in 10.0 mi South 19.6 mph - N/A   Overcast
4:10 PM 39.6 °F 30.0 °F 20.1 °F 46% 30.11 in 10.0 mi South 19.6 mph - N/A   Overcast
4:30 PM 39.9 °F 30.0 °F 19.4 °F 44% 30.10 in 10.0 mi South 21.9 mph - N/A   Overcast
4:50 PM 42.1 °F 33.9 °F 21.6 °F 44% 30.09 in 10.0 mi South 17.3 mph 23.0 mph N/A   Overcast
5:10 PM 41.0 °F 32.2 °F 21.0 °F 45% 30.08 in 10.0 mi South 18.4 mph - N/A   Mostly Cloudy
5:30 PM 40.3 °F 31.0 °F 20.7 °F 46% 30.07 in 10.0 mi SSE 19.6 mph 26.5 mph N/A   Overcast
5:50 PM 41.0 °F 32.5 °F 21.0 °F 45% 30.08 in 10.0 mi South 17.3 mph 21.9 mph N/A   Overcast
6:10 PM 39.9 °F 30.5 °F 21.2 °F 47% 30.06 in 10.0 mi SSE 19.6 mph 25.3 mph N/A   Mostly Cloudy
6:30 PM 39.7 °F 30.6 °F 21.6 °F 48% 30.05 in 10.0 mi SSE 18.4 mph 25.3 mph N/A   Overcast
6:50 PM 39.6 °F 30.3 °F 22.3 °F 50% 30.04 in 10.0 mi South 18.4 mph - N/A   Overcast
7:10 PM 39.6 °F 30.6 °F 22.5 °F 50% 30.04 in 10.0 mi South 17.3 mph - N/A   Overcast
7:30 PM 39.6 °F 31.0 °F 23.4 °F 52% 30.02 in 10.0 mi SSE 16.1 mph - N/A   Overcast
7:50 PM 38.7 °F 29.8 °F 23.7 °F 55% 30.01 in 10.0 mi SSE 16.1 mph 24.2 mph N/A   Overcast
8:10 PM 38.3 °F 29.3 °F 23.4 °F 55% 30.01 in 10.0 mi SSE 16.1 mph - N/A   Overcast
8:30 PM 37.9 °F 29.2 °F 24.3 °F 58% 30.02 in 10.0 mi SSE 15.0 mph - N/A   Overcast
8:50 PM 37.9 °F 30.0 °F 24.1 °F 57% 30.02 in 10.0 mi SSE 12.7 mph - N/A   Overcast
9:10 PM 37.6 °F 28.4 °F 24.4 °F 59% 30.02 in 10.0 mi South 16.1 mph 21.9 mph N/A   Overcast
9:30 PM 37.9 °F 28.9 °F 24.1 °F 57% 30.01 in 10.0 mi South 16.1 mph - N/A   Overcast
9:50 PM 37.6 °F 27.7 °F 24.1 °F 58% 30.02 in 10.0 mi South 18.4 mph 24.2 mph N/A   Overcast
10:10 PM 37.6 °F 28.4 °F 24.3 °F 59% 30.01 in 10.0 mi South 16.1 mph 21.9 mph N/A   Overcast
10:30 PM 37.6 °F 29.6 °F 24.6 °F 60% 30.01 in 10.0 mi South 12.7 mph - N/A   Overcast
10:50 PM 37.8 °F 30.2 °F 24.4 °F 59% 30.00 in 10.0 mi South 11.5 mph - N/A   Overcast
11:10 PM 37.9 °F 29.6 °F 24.1 °F 57% 29.98 in 10.0 mi South 13.8 mph 20.7 mph N/A   Overcast
11:30 PM 38.3 °F 28.7 °F 23.9 °F 56% 29.98 in 10.0 mi South 18.4 mph - N/A   Overcast
11:50 PM 38.1 °F 29.1 °F 24.4 °F 58% 29.97 in 10.0 mi South 16.1 mph - N/A   Overcast